www.pogodaiklimat.ru

Погода и климат >> Архив погоды >> Мексика >> Chihuahua University


ПОГОДА в Chihuahua University

  • Прогноз погоды в Chihuahua University
  • Монитор погоды в Chihuahua University
  • Климат города

АРХИВ ПОГОДЫ в Chihuahua University

Время (UTC), дата Ветер
(напр.,м/с)
 
Видим.   Явления Облачность Т
(С)
Тd
(С)
f
(%)
Тe
(С)
Тes
(С)
Комфортность P
(гПа)
Po
(гПа)
Тmin
(С)
Tmax
(С)
R
(мм)
R24
(мм)
S
(см)
12 17.11 З 4 2000 м ясно +17.8 +2.5 36 +18 +18 1010.5 862.5 +13.2 +31.2
15 17.11 В 2 8000 м мгла 4/0 2000 м
[Ac lent Ci]
+16.4 +3.9 43 +17 +18 1013.5 864.2
18 17.11 Ю 3 9000 м мгла 3/0
[Ac lent]
+27.0 +4.2 23 +26 +31 жарко 1011.6 863.3 +11.2 +27.5
21 17.11 Ю 3 10 км 3/0
[Ac inh]
+30.8 +2.7 17 +28 +33 жарко 1005.7 860.0
00 18.11 СЗ 3 10 км 3/0
[Cc]
+28.4 +2.6 19 +26 +27 жарко 1002.2 858.6 +11.2 +31.8
03 18.11 З 2 2000 м ясно +20.6 +1.0 27 +21 +21 комфорт 1003.2 860.4
06 18.11 З 2 2000 м ясно +16.2 -3.9 25 +16 +16 1005.1 861.5 +11.2 +31.8
09 18.11 СЗ 1 2000 м ясно +13.4 -1.0 37 +14 +14 1007.3 861.6
12 18.11 З 2 2000 м ясно +9.8 -0.2 50 +9 +9 1009.5 861.3 +9.5 +31.8
15 18.11 З 2 10 км ясно +12.8 +3.8 54 +12 +13 1013.8 863.6
18 18.11 С 4 10 км ясно +21.8 +0.1 24 +21 +27 комфорт 1015.3 864.9 +8.0 +22.0
21 18.11 В 6 10 км 3/0
[Ac inh]
+24.6 -2.4 17 +23 +25 комфорт 1011.6 862.9
00 19.11 СВ 3 10 км 5/0
[Ac und Cs]
+22.0 +3.1 29 +22 +22 комфорт 1009.9 862.8 +8.0 +24.8
03 19.11 СВ 1 2000 м 4/0
[Ac trans]
+16.7 +4.6 45 +18 +18 1010.8 864.1
06 19.11 СВ 3 2000 м 4/0
[Ac lent]
+14.4 -0.1 37 +14 +14 1013.5 866.2 +8.0 +24.8
09 19.11 СВ 1 2000 м 9/0
[Ac lent]
+11.4 +1.9 52 +12 +12 1014.8 866.0
12 19.11 В 2 2000 м 4/0
[Ac cast]
+8.8 -3.4 42 +8 +8 1016.8 866.1 +8.5
15 19.11 В 2 8000 м мгла 6/0 2000 м
[Ac inh]
+10.0 -3.5 38 +9 +10 1019.1 866.9
18 19.11 В 2 9000 м мгла 8/0 2000 м
[Ac inh]
+15.0 -1.5 32 +15 +19 1019.0 866.6 +2.0 +16.0
21 19.11 В 2 10 км 5/0 2000 м
[Ac lent]
+18.6 +1.0 31 +19 +23 1013.3 862.3
00 20.11 Ю 3 6000 м ясно +17.8 +2.0 35 +18 +18 1010.6 861.2 +2.0 +19.6
03 20.11 З 2 2000 м ясно +12.0 +2.3 51 +11 +11 1010.9 861.9
06 20.11 З 1 2000 м ясно +7.8 +0.2 59 +7 +7 1012.6 862.9 +2.0 +19.6
09 20.11 З 2 2000 м ясно +5.6 0.0 67 +3 +3 1013.9 862.7
12 20.11 В 1 2000 м ясно +3.6 -1.4 70 +2 +2 1015.3 862.2 +3.6 +19.6
15 20.11 В 1 8000 м мгла туман ясно +8.4 +1.0 60 +8 +9 1018.8 864.2
18 20.11 В 4 10 км 5/0
[Cs]
+18.6 +6.1 44 +19 +24 1017.1 863.4 +3.6 +19.5
21 20.11 В 2 10 км ясно +22.2 +5.2 33 +23 +29 комфорт 1011.8 860.7
00 21.11 С 3 10 км 8/0
[Cs]
+20.0 +2.8 32 +21 +21 комфорт 1009.3 860.6 +3.6 +23.5
03 21.11 З 2 2000 м 4/0
[Cs]
+13.8 +1.2 42 +14 +14 1008.9 861.4
06 21.11 З 1 2000 м 4/0
[Cs]
+9.8 -0.2 50 +10 +10 1010.0 861.9 +3.6 +23.5
09 21.11 З 1 2000 м 5/0
[Cs]
+8.0 +2.0 66 +8 +8 1011.0 861.2
12 21.11 З 1 2000 м 3/0
[Cs]
+7.6 -1.0 54 +7 +7 1012.4 860.7 +6.2 +23.5
15 21.11 С 1 8000 м мгла туман 8/0
[Cs]
+9.8 +1.3 55 +10 +11 1016.3 863.1
18 21.11 В 3 10 км 8/0
[Ci]
+20.4 +3.9 34 +21 +27 комфорт 1016.1 863.9 +5.0 +20.5
21 21.11 СВ 7 5000 м пыльный позёмок {метель} 9/0
[Cs]
+24.8 +4.8 27 +24 +26 комфорт 1011.0 861.4
00 22.11 СВ 6 10 км 8/0
[Cs]
+22.4 -0.7 21 +21 +21 комфорт 1010.5 862.8 +5.0 +25.0
03 22.11 С 2 2000 м ясно +17.2 -2.7 26 +18 +18 1011.5 865.0
06 22.11 С 3 2000 м ясно +12.2 -2.4 36 +11 +11 1014.7 867.1 +5.0 +25.0
09 22.11 В 1 2000 м ясно +8.0 -3.4 44 +8 +8 1018.7 869.0
12 22.11 З 1 2000 м ясно +6.2 -4.9 45 +6 +6 1021.3 869.2 +4.8 +25.0
15 22.11 штиль 0 8000 м мгла туман 1/0
[Cs]
+8.8 -1.7 48 +9 +10 1024.3 870.3
18 22.11 ЮЗ 2 10 км 3/0
[Ci]
+17.8 +1.3 33 +18 +26 1024.1 870.5 +4.2 +18.0
21 22.11 СВ 3 10 км 1/0
[Ci]
+20.8 -4.1 18 +21 +26 комфорт 1019.0 867.3
00 23.11 В 3 10 км 6/0
[Ci]
+18.0 -1.3 27 +18 +18 1016.7 866.9 +4.2 +22.0
03 23.11 З 1 2000 м ясно +10.2 -3.1 39 +10 +10 1016.5 867.4
06 23.11 СЗ 1 2000 м ясно +7.2 -3.4 47 +7 +7 1017.5 867.4 +4.0 +22.0
09 23.11 З 1 2000 м ясно +5.2 -1.5 62 +4 +4 1019.0 866.9
12 23.11 штиль 0 2000 м ясно +3.4 -4.4 57 +3 +3 1020.7 866.4 +3.0 +22.0
15 23.11 В 1 8000 м мгла туман ясно +8.6 -0.8 52 +8 +10 1022.5 867.1
18 23.11 СВ 3 10 км ясно +18.0 -1.3 27 +18 +25 1021.6 867.2 +2.8 +18.2
21 23.11 СВ 4 10 км ясно +22.0 +3.3 29 +22 +26 комфорт 1016.0 864.3
00 24.11 СВ 3 10 км ясно +20.0 -2.8 21 +20 +20 1012.9 863.7 +2.8 +22.5
03 24.11 З 3 2000 м ясно +12.6 -1.1 39 +12 +12 1012.1 864.1
06 24.11 З 1 2000 м ясно +9.0 -1.9 46 +9 +9 1012.5 863.9 +2.8 +22.5

 

Местоположение метеостанции Chihuahua University (Мексика): широта 28.63 долгота -106.00 высота над уровнем моря 1433 м.

В архиве по умолчанию представлена погода в Chihuahua University за последнюю неделю. Архивные данные за месяц целиком и за предыдущие месяцы, начиная с января 2011 года, Вы можете получить, выбрав интересующий диапазон дат из раскрывающегося списка и нажав кнопку "Ввод!".

Внимание! Время в таблицах - всемирное. Для получения местного времени необходимо прибавить поправку, которая в Chihuahua University равна -6 ч.

Смотрите также архив погоды в соседних городах и на ближайших метеорологических станциях:

Погода в Chihuahua (Мексика) (11 км)
Погода в Temosachic (Мексика) (179 км)
Погода в Hidalgo del Parral (Мексика) (193 км)
Погода в Nueva Casas Grandes (Мексика) (267 км)
Погода в Choix (Мексика) (303 км)
Погода в Tepehuanes (Мексика) (367 км)
Погода в Ciudad Obregon (Мексика) (401 км)
Погода в Pilares de Nacoz (Мексика) (405 км)
Погода в Torreon (Мексика) (430 км)
Погода в Culiacan (Мексика) (448 км)

Пояснения к столбцам:

Ветер - указаны скорость ветра в м/с - средняя за 10 мин, порывы в срок и между сроками (в фигурных скобках) и направление, откуда дует ветер: С - северный, СВ - северо-восточный, В - восточный, ЮВ - юго-восточный, Ю - южный, ЮЗ - юго-западный, З - западный, СЗ - северо-западный.
Видимость - горизонтальная дальность видимости в метрах или километрах. При видимости от 1 до 10 км при отсутствии осадков обычно наблюдается дымка, при ухудшении видимости до 1 км и менее - туман. В сухую погоду видимость может ухудшаться дымом, пылью или мглою.
Явления - указаны атмосферные явления, наблюдавшиеся в срок или в последний час перед сроком; фигурными скобками обозначены явления, наблюдавшиеся между сроками (за 1-3 часа до срока); квадратными скобками обозначены град или гололедные отложения с указанием их диаметра в мм.
Облачность - указаны через наклонную черту общая и нижняя облачность в баллах и высота нижней границы облаков в метрах; квадратными скобками обозначены формы облаков: Ci - перистые, Cs - перисто-слоистые, Cc - перисто-кучевые, Ac - высококучевые, As - высокослоистые, Sc - слоисто-кучевые, Ns - слоисто-дождевые, Cu - кучевые, Cb - кучево-дождевые. Подробнее классификацию облаков см. в Атласе облаков (PDF).
T - Температура воздуха - температура, измеренная на высоте 2 м над землей.
Td - Температура точки росы - температура, при понижении до которой содержащийся в воздухе водяной пар достигнет насыщения.
f - Относительная влажность воздуха - влажноcть воздуха, измеренная на высоте 2 м над землей.
Te - Эффективная температура - температура, которую ощущает одетый по сезону человек в тени. Характеристика душности погоды. При расчете учитывается влияние влажности воздуха и скорости ветра на теплоощущения человека.
Tes - Эффективная температура на солнце - температура, которую ощущает человек, с поправкой на солнечный нагрев. Характеристика знойности погоды. Зависит от высоты солнца над горизонтом, облачности и скорости ветра. Ночью, в пасмурную погоду, а также при ветре 12 м/с и более поправка равна нулю.
P - Атмосферное давление - приведенное к уровню моря атмосферное давление.
Po - Атмосферное давление - измеренное на уровне метеостанции атмосферное давление.
Tmin - Минимальная температура - минимум температуры воздуха на высоте 2 м над землей.
Tmax - Максимальная температура - максимум температуры воздуха на высоте 2 м над землей.
R - Количество осадков - Количество выпавших осадков за период времени, мм. При наведении курсора мыши на число - период времени, за который выпало указанное количество осадков.
R24 - Количество осадков - Количество выпавших осадков за 24 часа, мм.
S - Снежный покров - Высота снежного покрова, см. При наведении курсора мыши на число - состояние снежного покрова и степень покрытия местности в баллах.